WXM80 ListenWXM80 Stop

You find our weather info also at:

UK Metoffice

WeatherCloud

Weather Underground

Northeastern Weather Network

AWEKAS

Citizen Weather Observer Program (CWOP)

HAMweather, WeatherForYou, PWS Weather


Weather Underground History page Text

Daily Summary for August 31, 2016 Units:  English    Metric   Both
« Previous Day
Next Day »
Daily Weekly Monthly Yearly Custom
  High: Low: Average:
Temperature: 88.5 °F 71.6 °F 78.5 °F
Dew Point: 74.6 °F 67.2 °F 71.2 °F
Humidity: 97 % 53 % 80 %
Wind Speed: 6.0 mph 0.0 mph 1.2 mph
Wind Gust: 12.0 mph - -
Wind:- - SSW
Pressure: 30.02 in 29.84 in -
Precipitation: 0.00 in    
Historical Graphs
 
 
Tabular Data for August 31, 2016
Time Temperature Dew Point Pressure Wind Wind Speed Wind Gust Humidity Rainfall Rate (Hourly)
00:01 72.4 °F 67.6 °F 30.02 in Calm     85 % 0.00 in
00:06 72.3 °F 67.2 °F 30.02 in Calm     84 % 0.00 in
00:11 72.3 °F 67.5 °F 30.01 in Calm     85 % 0.00 in
00:21 72.2 °F 67.8 °F 30.01 in Calm     86 % 0.00 in
00:26 72.1 °F 67.7 °F 30.01 in Calm     86 % 0.00 in
00:31 72.1 °F 68.0 °F 30.01 in Calm     87 % 0.00 in
00:36 72.1 °F 68.0 °F 30.01 in Calm     87 % 0.00 in
00:41 72.0 °F 68.2 °F 30.01 in Calm     88 % 0.00 in
00:47 72.0 °F 68.2 °F 30.01 in Calm     88 % 0.00 in
00:52 72.0 °F 68.6 °F 30.01 in Calm     89 % 0.00 in
00:57 72.0 °F 68.2 °F 30.01 in Calm     88 % 0.00 in
01:02 72.0 °F 68.6 °F 30.01 in Calm   1.2 mph 89 % 0.00 in
01:07 71.9 °F 68.5 °F 30.01 in WSW 0.1 mph 1.0 mph 89 % 0.00 in
01:12 71.9 °F 68.5 °F 30.01 in WSW 0.6 mph 2.3 mph 89 % 0.00 in
01:17 71.9 °F 68.5 °F 30.01 in Calm     89 % 0.00 in
01:22 71.9 °F 68.8 °F 30.01 in WSW 0.4 mph 2.0 mph 90 % 0.00 in
01:27 71.9 °F 68.8 °F 30.01 in Calm   1.2 mph 90 % 0.00 in
01:32 71.9 °F 68.8 °F 30.01 in Calm     90 % 0.00 in
01:38 71.8 °F 68.7 °F 30.01 in Calm     90 % 0.00 in
01:43 71.8 °F 68.7 °F 30.01 in Calm     90 % 0.00 in
01:48 71.8 °F 68.7 °F 30.01 in Calm     90 % 0.00 in
01:53 71.8 °F 69.0 °F 30.01 in Calm     91 % 0.00 in
01:58 71.7 °F 68.9 °F 30.01 in WSW 0.2 mph 1.2 mph 91 % 0.00 in
02:03 71.7 °F 68.9 °F 30.00 in Calm     91 % 0.00 in
02:08 71.7 °F 68.9 °F 30.01 in Calm     91 % 0.00 in
02:13 71.7 °F 68.9 °F 30.01 in Calm     91 % 0.00 in
02:18 71.6 °F 69.2 °F 30.01 in Calm     92 % 0.00 in
02:23 71.6 °F 69.2 °F 30.01 in WSW 0.1 mph 1.2 mph 92 % 0.00 in
02:29 71.6 °F 69.2 °F 30.00 in WSW 0.8 mph 3.0 mph 92 % 0.00 in
02:34 71.6 °F 69.5 °F 30.00 in SW 0.6 mph 2.3 mph 93 % 0.00 in
02:39 71.7 °F 69.6 °F 30.01 in SSW 0.7 mph 2.3 mph 93 % 0.00 in
02:44 71.7 °F 69.6 °F 30.00 in Calm   1.2 mph 93 % 0.00 in
02:49 71.8 °F 70.0 °F 30.00 in Calm   1.2 mph 94 % 0.00 in
02:54 71.8 °F 70.0 °F 30.00 in Calm     94 % 0.00 in
02:59 71.9 °F 70.1 °F 30.00 in WSW 0.1 mph 1.2 mph 94 % 0.00 in
03:04 71.9 °F 70.1 °F 30.00 in Calm     94 % 0.00 in
03:14 72.0 °F 70.2 °F 30.00 in SW 0.3 mph 2.3 mph 94 % 0.00 in
03:20 72.0 °F 70.2 °F 30.00 in SW 0.7 mph   94 % 0.00 in
03:25 72.0 °F 70.2 °F 30.00 in SW 0.9 mph 2.3 mph 94 % 0.00 in
03:30 72.0 °F 70.2 °F 29.99 in Calm   1.2 mph 94 % 0.00 in
03:35 72.1 °F 70.3 °F 29.99 in SW 0.2 mph 1.2 mph 94 % 0.00 in
03:40 72.1 °F 70.3 °F 29.99 in Calm     94 % 0.00 in
03:45 72.1 °F 70.3 °F 29.99 in Calm     94 % 0.00 in
03:50 72.1 °F 70.3 °F 29.98 in Calm     94 % 0.00 in
03:55 72.1 °F 70.3 °F 29.98 in Calm     94 % 0.00 in
04:00 72.0 °F 70.2 °F 29.99 in Calm     94 % 0.00 in
04:05 72.0 °F 70.2 °F 29.98 in Calm     94 % 0.00 in
04:11 71.9 °F 70.1 °F 29.98 in Calm     94 % 0.00 in
04:16 71.9 °F 70.1 °F 29.98 in Calm     94 % 0.00 in
04:21 71.9 °F 70.1 °F 29.98 in Calm     94 % 0.00 in
04:26 71.8 °F 70.0 °F 29.98 in Calm     94 % 0.00 in
04:31 71.8 °F 70.0 °F 29.98 in Calm     94 % 0.00 in
04:36 71.8 °F 70.0 °F 29.98 in Calm   1.0 mph 94 % 0.00 in
04:41 71.7 °F 69.9 °F 29.98 in Calm   1.0 mph 94 % 0.00 in
04:46 71.7 °F 69.9 °F 29.98 in Calm     94 % 0.00 in
04:51 71.6 °F 69.8 °F 29.98 in Calm     94 % 0.00 in
04:56 71.6 °F 69.8 °F 29.98 in Calm     94 % 0.00 in
05:01 71.7 °F 70.2 °F 29.98 in Calm     95 % 0.00 in
05:11 71.7 °F 70.2 °F 29.97 in Calm     95 % 0.00 in
05:16 71.8 °F 70.3 °F 29.97 in Calm     95 % 0.00 in
05:26 71.9 °F 70.4 °F 29.97 in Calm     95 % 0.00 in
05:31 71.9 °F 70.7 °F 29.97 in Calm     96 % 0.00 in
05:36 71.9 °F 70.4 °F 29.97 in Calm     95 % 0.00 in
05:41 71.9 °F 70.7 °F 29.97 in Calm     96 % 0.00 in
05:47 71.9 °F 70.4 °F 29.97 in Calm     95 % 0.00 in
05:52 71.9 °F 70.4 °F 29.97 in Calm   1.2 mph 95 % 0.00 in
06:02 71.9 °F 70.7 °F 29.98 in Calm     96 % 0.00 in
06:07 71.9 °F 70.7 °F 29.97 in Calm   1.2 mph 96 % 0.00 in
06:12 71.9 °F 70.7 °F 29.97 in WSW 0.1 mph 2.0 mph 96 % 0.00 in
06:17 72.0 °F 70.8 °F 29.97 in Calm     96 % 0.00 in
06:22 72.0 °F 70.8 °F 29.97 in WSW 0.1 mph 1.2 mph 96 % 0.00 in
06:27 72.0 °F 70.8 °F 29.98 in Calm     96 % 0.00 in
06:32 72.0 °F 70.8 °F 29.98 in Calm     96 % 0.00 in
06:38 72.0 °F 70.8 °F 29.98 in Calm     96 % 0.00 in
06:43 72.0 °F 70.8 °F 29.98 in Calm   1.2 mph 96 % 0.00 in
06:48 72.0 °F 70.8 °F 29.98 in Calm     96 % 0.00 in
06:53 72.1 °F 70.9 °F 29.97 in Calm     96 % 0.00 in
06:58 72.1 °F 70.9 °F 29.98 in Calm     96 % 0.00 in
07:03 72.1 °F 70.9 °F 29.98 in Calm   1.0 mph 96 % 0.00 in
07:08 72.1 °F 70.9 °F 29.97 in SW 0.1 mph   96 % 0.00 in
07:18 72.2 °F 71.0 °F 29.97 in SW 0.1 mph 2.3 mph 96 % 0.00 in
07:23 72.2 °F 71.0 °F 29.97 in Calm   1.2 mph 96 % 0.00 in
07:29 72.3 °F 71.1 °F 29.97 in SSW 1.7 mph 3.0 mph 96 % 0.00 in
07:34 72.4 °F 71.2 °F 29.97 in West 0.4 mph 3.0 mph 96 % 0.00 in
07:39 72.6 °F 71.7 °F 29.97 in SW 1.7 mph 3.5 mph 97 % 0.00 in
07:44 72.7 °F 71.5 °F 29.97 in WSW 1.8 mph 4.6 mph 96 % 0.00 in
07:49 72.8 °F 71.9 °F 29.97 in SW 3.0 mph 4.6 mph 97 % 0.00 in
07:54 73.0 °F 71.8 °F 29.97 in SSW 2.1 mph 4.6 mph 96 % 0.00 in
07:59 73.1 °F 72.2 °F 29.97 in SW 3.8 mph 4.6 mph 97 % 0.00 in
08:04 73.2 °F 72.3 °F 29.97 in SW 2.2 mph 3.5 mph 97 % 0.00 in
08:09 73.3 °F 72.4 °F 29.97 in SW 2.7 mph 4.0 mph 97 % 0.00 in
08:14 73.5 °F 72.3 °F 29.97 in SW 3.1 mph 3.5 mph 96 % 0.00 in
08:20 73.6 °F 72.4 °F 29.97 in SW 0.7 mph 3.0 mph 96 % 0.00 in
08:25 73.7 °F 72.8 °F 29.96 in West 3.1 mph 4.0 mph 97 % 0.00 in
08:30 73.9 °F 72.7 °F 29.97 in WSW 2.0 mph 4.6 mph 96 % 0.00 in
08:35 74.1 °F 72.9 °F 29.97 in WNW 2.0 mph 4.6 mph 96 % 0.00 in
08:40 74.3 °F 72.8 °F 29.97 in WSW 2.1 mph 4.6 mph 95 % 0.00 in
08:45 74.6 °F 73.1 °F 29.96 in WSW 3.3 mph 5.8 mph 95 % 0.00 in
08:50 74.9 °F 73.1 °F 29.96 in WNW 3.3 mph 8.1 mph 94 % 0.00 in
08:55 75.3 °F 73.1 °F 29.96 in WSW 1.6 mph 3.5 mph 93 % 0.00 in
09:00 75.5 °F 73.0 °F 29.96 in SSW 4.3 mph 6.0 mph 92 % 0.00 in
09:05 75.9 °F 72.8 °F 29.96 in West 2.9 mph 7.0 mph 90 % 0.00 in
09:11 76.2 °F 72.7 °F 29.96 in SW 3.0 mph 7.0 mph 89 % 0.00 in
09:16 76.5 °F 73.0 °F 29.96 in SW 5.0 mph 10.0 mph 89 % 0.00 in
09:20 76.8 °F 73.0 °F 29.96 in NW 0.9 mph 5.8 mph 88 % 0.00 in
09:26 77.0 °F 72.9 °F 29.96 in WNW 6.0 mph 10.0 mph 87 % 0.00 in
09:31 77.3 °F 72.8 °F 29.96 in WSW 3.0 mph 12.0 mph 86 % 0.00 in
09:35 77.7 °F 73.2 °F 29.96 in WSW 3.6 mph 5.0 mph 86 % 0.00 in
09:41 78.0 °F 73.1 °F 29.96 in WSW 3.0 mph 7.0 mph 85 % 0.00 in
09:46 78.5 °F 73.2 °F 29.96 in WSW 3.0 mph 6.0 mph 84 % 0.00 in
09:51 79.0 °F 73.4 °F 29.96 in WSW 6.0 mph 10.0 mph 83 % 0.00 in
09:56 79.7 °F 73.7 °F 29.96 in WSW 2.0 mph 8.0 mph 82 % 0.00 in
10:01 80.3 °F 73.9 °F 29.96 in SW 2.7 mph 4.0 mph 81 % 0.00 in
10:06 80.8 °F 73.3 °F 29.96 in WSW 3.4 mph 4.6 mph 78 % 0.00 in
10:11 81.0 °F 73.5 °F 29.96 in West 4.2 mph 6.0 mph 78 % 0.00 in
10:16 81.3 °F 73.4 °F 29.95 in WSW 2.3 mph 3.5 mph 77 % 0.00 in
10:21 81.4 °F 73.5 °F 29.96 in SSW 2.0 mph 4.6 mph 77 % 0.00 in
10:26 81.5 °F 73.2 °F 29.95 in WNW 3.2 mph 6.9 mph 76 % 0.00 in
10:31 81.7 °F 73.8 °F 29.95 in WNW 0.7 mph 2.3 mph 77 % 0.00 in
10:36 81.9 °F 73.2 °F 29.94 in SW 0.8 mph 5.8 mph 75 % 0.00 in
10:41 82.0 °F 72.9 °F 29.94 in SSW 1.5 mph 7.0 mph 74 % 0.00 in
10:47 82.3 °F 72.8 °F 29.94 in SSW 3.5 mph 4.6 mph 73 % 0.00 in
10:52 82.6 °F 72.2 °F 29.94 in SSW 1.6 mph 6.9 mph 71 % 0.00 in
10:57 83.0 °F 73.0 °F 29.94 in SW 3.8 mph 5.8 mph 72 % 0.00 in
11:02 83.5 °F 72.7 °F 29.94 in West 1.0 mph 3.0 mph 70 % 0.00 in
11:07 84.2 °F 73.8 °F 29.94 in West 2.7 mph 5.8 mph 71 % 0.00 in
11:12 84.9 °F 72.7 °F 29.94 in West 2.3 mph 3.5 mph 67 % 0.00 in
11:17 85.4 °F 72.3 °F 29.94 in West 3.9 mph 6.9 mph 65 % 0.00 in
11:22 85.8 °F 72.2 °F 29.94 in WSW 4.1 mph 6.9 mph 64 % 0.00 in
11:27 86.2 °F 72.1 °F 29.94 in WNW 5.2 mph 8.1 mph 63 % 0.00 in
11:33 86.3 °F 72.7 °F 29.93 in SW 2.7 mph 7.0 mph 64 % 0.00 in
11:38 86.3 °F 72.2 °F 29.94 in SW 3.8 mph 6.0 mph 63 % 0.00 in
11:43 86.4 °F 71.8 °F 29.93 in WSW 0.6 mph 3.5 mph 62 % 0.00 in
11:48 86.4 °F 73.2 °F 29.93 in West 0.1 mph 3.5 mph 65 % 0.00 in
11:53 86.4 °F 74.6 °F 29.93 in WNW 1.6 mph 3.5 mph 68 % 0.00 in
11:58 86.2 °F 74.0 °F 29.93 in NW 1.8 mph 3.5 mph 67 % 0.00 in
12:03 86.3 °F 74.5 °F 29.93 in West 1.9 mph 4.0 mph 68 % 0.00 in
12:08 86.4 °F 74.1 °F 29.93 in North 2.8 mph 4.0 mph 67 % 0.00 in
12:13 86.5 °F 73.8 °F 29.93 in NE 2.1 mph 5.0 mph 66 % 0.00 in
12:18 86.3 °F 72.7 °F 29.93 in NNW 1.4 mph 4.6 mph 64 % 0.00 in
12:24 86.4 °F 72.3 °F 29.93 in ENE 0.8 mph 6.9 mph 63 % 0.00 in
12:29 86.5 °F 73.3 °F 29.92 in NW 2.1 mph 4.6 mph 65 % 0.00 in
12:34 86.6 °F 73.0 °F 29.92 in WNW 2.8 mph 4.0 mph 64 % 0.00 in
12:39 86.6 °F 73.0 °F 29.92 in NNE 1.9 mph 3.5 mph 64 % 0.00 in
12:44 86.5 °F 73.8 °F 29.92 in NNE 2.2 mph 3.5 mph 66 % 0.00 in
12:49 86.5 °F 73.8 °F 29.92 in NNW 2.0 mph 3.5 mph 66 % 0.00 in
12:54 86.4 °F 73.2 °F 29.92 in NNE 0.2 mph 1.2 mph 65 % 0.00 in
12:59 86.6 °F 73.4 °F 29.92 in NNE 1.6 mph 3.5 mph 65 % 0.00 in
13:04 86.9 °F 73.7 °F 29.91 in North 1.3 mph 3.5 mph 65 % 0.00 in
13:09 87.7 °F 74.0 °F 29.91 in NNE 1.3 mph 4.0 mph 64 % 0.00 in
13:15 88.1 °F 73.4 °F 29.91 in NNE 2.4 mph 3.5 mph 62 % 0.00 in
13:20 88.1 °F 72.0 °F 29.91 in North 2.8 mph 4.6 mph 59 % 0.00 in
13:25 88.2 °F 73.5 °F 29.91 in NW 1.7 mph 4.0 mph 62 % 0.00 in
13:30 88.3 °F 71.6 °F 29.90 in North 2.5 mph 4.6 mph 58 % 0.00 in
13:35 88.4 °F 71.2 °F 29.90 in WNW 3.3 mph 5.8 mph 57 % 0.00 in
13:40 88.5 °F 71.3 °F 29.90 in NW 0.8 mph 3.5 mph 57 % 0.00 in
13:45 88.5 °F 71.3 °F 29.90 in NNE 3.1 mph 3.5 mph 57 % 0.00 in
13:50 88.4 °F 69.6 °F 29.90 in WNW 1.2 mph 5.8 mph 54 % 0.00 in
13:55 88.3 °F 69.0 °F 29.90 in NW 1.9 mph 5.8 mph 53 % 0.00 in
14:00 88.2 °F 71.0 °F 29.89 in NNW 1.6 mph 3.5 mph 57 % 0.00 in
14:05 88.2 °F 72.0 °F 29.89 in North 1.0 mph 5.0 mph 59 % 0.00 in
14:10 88.0 °F 70.9 °F 29.89 in North 0.8 mph 4.6 mph 57 % 0.00 in
14:16 88.0 °F 71.9 °F 29.89 in North 2.0 mph 5.0 mph 59 % 0.00 in
14:21 88.1 °F 70.9 °F 29.89 in North 5.0 mph 6.0 mph 57 % 0.00 in
14:25 88.0 °F 70.3 °F 29.89 in North 3.0 mph 7.0 mph 56 % 0.00 in
14:30 88.1 °F 70.9 °F 29.89 in North 1.0 mph 4.0 mph 57 % 0.00 in
14:35 88.2 °F 70.5 °F 29.88 in North 1.0 mph 4.0 mph 56 % 0.00 in
14:40 88.2 °F 70.5 °F 29.88 in NNE 3.3 mph 5.8 mph 56 % 0.00 in
14:45 87.7 °F 70.1 °F 29.88 in NNW 2.4 mph 4.6 mph 56 % 0.00 in
14:50 87.6 °F 70.0 °F 29.88 in NW 0.9 mph 3.5 mph 56 % 0.00 in
14:55 87.7 °F 69.5 °F 29.88 in NNE 3.9 mph 5.0 mph 55 % 0.00 in
15:01 87.6 °F 70.0 °F 29.88 in NE 2.8 mph 3.5 mph 56 % 0.00 in
15:06 87.7 °F 71.1 °F 29.88 in ENE 1.2 mph 3.0 mph 58 % 0.00 in
15:11 87.6 °F 71.0 °F 29.88 in NE 2.1 mph 3.5 mph 58 % 0.00 in
15:16 87.2 °F 70.1 °F 29.88 in NE 0.5 mph 2.3 mph 57 % 0.00 in
15:21 86.9 °F 71.8 °F 29.87 in NE 0.1 mph 3.5 mph 61 % 0.00 in
15:26 86.6 °F 71.1 °F 29.87 in NE 0.8 mph 3.0 mph 60 % 0.00 in
15:31 86.3 °F 71.7 °F 29.86 in NE 0.3 mph 2.3 mph 62 % 0.00 in
15:36 86.0 °F 70.5 °F 29.87 in Calm     60 % 0.00 in
15:42 85.9 °F 70.4 °F 29.86 in Calm     60 % 0.00 in
15:47 85.8 °F 71.3 °F 29.86 in NE 0.1 mph 1.2 mph 62 % 0.00 in
15:52 85.6 °F 71.1 °F 29.86 in NE 0.2 mph 1.2 mph 62 % 0.00 in
15:57 85.5 °F 70.0 °F 29.87 in NE 0.6 mph 2.0 mph 60 % 0.00 in
16:02 85.5 °F 70.0 °F 29.86 in NE 1.6 mph 3.5 mph 60 % 0.00 in
16:07 85.4 °F 69.4 °F 29.86 in ENE 1.9 mph 3.5 mph 59 % 0.00 in
16:12 85.2 °F 70.2 °F 29.86 in NE 2.4 mph 4.6 mph 61 % 0.00 in
16:17 85.1 °F 70.6 °F 29.86 in NE 0.2 mph 2.3 mph 62 % 0.00 in
16:22 85.1 °F 70.1 °F 29.86 in SE 0.4 mph 2.0 mph 61 % 0.00 in
16:27 84.9 °F 70.9 °F 29.85 in Calm     63 % 0.00 in
16:32 84.9 °F 71.4 °F 29.86 in SE 3.8 mph 3.8 mph 64 % 0.00 in
16:37 84.9 °F 71.8 °F 29.86 in SW 1.1 mph 2.3 mph 65 % 0.00 in
16:43 84.8 °F 71.3 °F 29.85 in South 0.3 mph 3.5 mph 64 % 0.00 in
16:48 84.6 °F 71.5 °F 29.85 in SE 1.1 mph 2.3 mph 65 % 0.00 in
16:53 84.3 °F 71.7 °F 29.85 in SE 3.0 mph 4.0 mph 66 % 0.00 in
16:58 84.0 °F 71.9 °F 29.85 in SSE 2.7 mph 4.6 mph 67 % 0.00 in
17:03 83.8 °F 72.1 °F 29.85 in Calm   1.2 mph 68 % 0.00 in
17:08 83.6 °F 71.9 °F 29.85 in SW 0.4 mph 3.5 mph 68 % 0.00 in
17:18 83.3 °F 72.1 °F 29.85 in SSE 0.6 mph 2.3 mph 69 % 0.00 in
17:23 83.3 °F 72.1 °F 29.85 in South 0.7 mph 1.2 mph 69 % 0.00 in
17:28 83.2 °F 72.4 °F 29.85 in WSW 1.1 mph 2.3 mph 70 % 0.00 in
17:39 82.3 °F 71.5 °F 29.85 in SE 2.2 mph 2.3 mph 70 % 0.00 in
17:44 82.0 °F 71.7 °F 29.85 in SW 1.5 mph 6.9 mph 71 % 0.00 in
17:49 81.7 °F 71.4 °F 29.85 in SSE 1.7 mph 3.5 mph 71 % 0.00 in
17:54 81.5 °F 71.6 °F 29.85 in South 0.1 mph 3.5 mph 72 % 0.00 in
17:59 81.4 °F 71.5 °F 29.84 in SE 5.5 mph 9.2 mph 72 % 0.00 in
18:04 81.1 °F 71.6 °F 29.85 in SE 0.7 mph 2.3 mph 73 % 0.00 in
18:09 81.1 °F 71.6 °F 29.85 in SSE 1.7 mph 5.0 mph 73 % 0.00 in
18:14 80.9 °F 71.4 °F 29.85 in SSE 1.8 mph 5.8 mph 73 % 0.00 in
18:19 80.8 °F 71.7 °F 29.84 in SSE 0.9 mph 4.6 mph 74 % 0.00 in
18:24 80.6 °F 71.5 °F 29.84 in SE 2.5 mph 4.6 mph 74 % 0.00 in
18:29 80.4 °F 71.3 °F 29.84 in SSE 1.1 mph 2.3 mph 74 % 0.00 in
18:35 80.3 °F 71.6 °F 29.84 in SSE 0.4 mph 1.2 mph 75 % 0.00 in
18:40 80.2 °F 71.6 °F 29.84 in SSE 0.6 mph 2.3 mph 75 % 0.00 in
18:45 80.2 °F 71.6 °F 29.84 in SSW 1.4 mph 3.5 mph 75 % 0.00 in
18:50 80.1 °F 71.5 °F 29.84 in SSW 1.4 mph 3.5 mph 75 % 0.00 in
18:55 80.0 °F 71.8 °F 29.84 in South 1.4 mph 4.0 mph 76 % 0.00 in
19:00 79.9 °F 71.7 °F 29.84 in SSW 1.6 mph 3.5 mph 76 % 0.00 in
19:05 79.7 °F 71.5 °F 29.84 in South 0.7 mph 3.5 mph 76 % 0.00 in
19:10 79.4 °F 71.6 °F 29.84 in South 1.2 mph 3.5 mph 77 % 0.00 in
19:15 79.2 °F 71.7 °F 29.84 in SSE 0.5 mph 2.3 mph 78 % 0.00 in
19:21 79.1 °F 71.6 °F 29.84 in Calm   4.0 mph 78 % 0.00 in
19:26 78.9 °F 71.8 °F 29.85 in SSE 0.9 mph 2.3 mph 79 % 0.00 in
19:36 78.7 °F 71.6 °F 29.84 in SSW 1.0 mph 4.0 mph 79 % 0.00 in
19:41 78.6 °F 71.5 °F 29.85 in SSW 1.3 mph 3.0 mph 79 % 0.00 in
19:46 78.5 °F 71.8 °F 29.85 in South 1.0 mph 5.0 mph 80 % 0.00 in
19:51 78.3 °F 71.7 °F 29.85 in SSE 1.0 mph 4.0 mph 80 % 0.00 in
19:56 78.3 °F 72.0 °F 29.85 in SSW 0.4 mph 2.0 mph 81 % 0.00 in
20:01 78.2 °F 71.9 °F 29.85 in SE 0.3 mph 3.0 mph 81 % 0.00 in
20:06 78.1 °F 71.8 °F 29.85 in SSW 0.2 mph 3.5 mph 81 % 0.00 in
20:16 77.9 °F 71.6 °F 29.85 in SE 0.2 mph 2.3 mph 81 % 0.00 in
20:21 77.9 °F 71.6 °F 29.85 in SE 1.0 mph 3.5 mph 81 % 0.00 in
20:26 77.8 °F 71.5 °F 29.85 in SSW 0.4 mph 2.0 mph 81 % 0.00 in
20:31 77.7 °F 71.4 °F 29.85 in SSW 0.1 mph 1.2 mph 81 % 0.00 in
20:36 77.7 °F 71.4 °F 29.86 in SSW 1.0 mph 3.5 mph 81 % 0.00 in
20:41 77.6 °F 71.3 °F 29.86 in SSE 0.4 mph 3.5 mph 81 % 0.00 in
20:47 77.6 °F 71.3 °F 29.86 in SSE 0.4 mph 2.3 mph 81 % 0.00 in
20:52 77.6 °F 71.3 °F 29.86 in SSW 0.7 mph 3.5 mph 81 % 0.00 in
20:57 77.6 °F 70.9 °F 29.86 in WSW 1.8 mph 4.6 mph 80 % 0.00 in
21:02 77.5 °F 71.2 °F 29.86 in WSW 0.3 mph 1.2 mph 81 % 0.00 in
21:07 77.5 °F 71.2 °F 29.86 in West 1.1 mph 5.0 mph 81 % 0.00 in
21:12 77.5 °F 71.2 °F 29.86 in SSE 0.9 mph 3.5 mph 81 % 0.00 in
21:17 77.5 °F 71.2 °F 29.86 in SSE 1.0 mph 3.5 mph 81 % 0.00 in
21:22 77.5 °F 71.2 °F 29.86 in SSW 0.5 mph 3.5 mph 81 % 0.00 in
21:27 77.5 °F 71.2 °F 29.86 in WSW 0.3 mph 3.5 mph 81 % 0.00 in
21:32 77.5 °F 71.2 °F 29.86 in Calm   3.5 mph 81 % 0.00 in
21:38 77.5 °F 70.8 °F 29.85 in SSE 0.3 mph 2.3 mph 80 % 0.00 in
21:43 77.5 °F 70.8 °F 29.85 in South 1.3 mph 3.5 mph 80 % 0.00 in
21:48 77.5 °F 70.8 °F 29.85 in SE 0.6 mph 4.6 mph 80 % 0.00 in
21:53 77.5 °F 70.8 °F 29.85 in SW 0.5 mph 2.3 mph 80 % 0.00 in
21:58 77.4 °F 70.7 °F 29.86 in SW 0.3 mph 1.2 mph 80 % 0.00 in
22:03 77.4 °F 70.7 °F 29.86 in SSE 0.1 mph 3.0 mph 80 % 0.00 in
22:08 77.4 °F 70.7 °F 29.85 in SE 0.4 mph 2.3 mph 80 % 0.00 in
22:13 77.4 °F 70.4 °F 29.85 in South 1.3 mph 3.5 mph 79 % 0.00 in
22:18 77.4 °F 70.4 °F 29.85 in SSW 0.2 mph 1.2 mph 79 % 0.00 in
22:23 77.3 °F 70.3 °F 29.85 in South 1.3 mph 3.5 mph 79 % 0.00 in
22:29 77.3 °F 70.3 °F 29.85 in SSE 1.1 mph 3.5 mph 79 % 0.00 in
22:34 77.3 °F 70.6 °F 29.85 in South 1.2 mph 3.5 mph 80 % 0.00 in
22:39 77.3 °F 70.6 °F 29.85 in South 0.8 mph 2.3 mph 80 % 0.00 in
22:44 77.3 °F 70.6 °F 29.85 in South 0.8 mph 1.2 mph 80 % 0.00 in
22:49 77.3 °F 70.6 °F 29.85 in Calm   1.2 mph 80 % 0.00 in
22:54 77.2 °F 70.9 °F 29.85 in SW 0.8 mph 3.0 mph 81 % 0.00 in
22:59 77.2 °F 70.9 °F 29.85 in SSW 0.8 mph 2.0 mph 81 % 0.00 in
23:04 77.1 °F 70.8 °F 29.85 in SSW 0.4 mph 3.5 mph 81 % 0.00 in
23:09 77.1 °F 70.8 °F 29.85 in SSW 0.4 mph 1.2 mph 81 % 0.00 in
23:14 77.1 °F 70.8 °F 29.85 in SW 0.4 mph 2.3 mph 81 % 0.00 in
23:20 77.1 °F 70.8 °F 29.85 in SSW 1.9 mph 4.0 mph 81 % 0.00 in
23:25 77.1 °F 70.8 °F 29.85 in SSW 1.0 mph 3.5 mph 81 % 0.00 in
23:30 77.0 °F 70.7 °F 29.85 in SSE 0.9 mph 2.3 mph 81 % 0.00 in
23:35 77.0 °F 70.7 °F 29.84 in SSW 0.1 mph 4.6 mph 81 % 0.00 in
23:40 77.0 °F 70.7 °F 29.84 in SSW 1.4 mph 3.5 mph 81 % 0.00 in
23:50 76.9 °F 70.6 °F 29.84 in SW 0.4 mph 2.3 mph 81 % 0.00 in
23:55 76.9 °F 71.0 °F 29.84 in West 0.2 mph 1.2 mph 82 % 0.00 in
Crab Meadow Weather
Compliments of Weather Underground - 2.75 mb

Script developed by  Jim McMurry - jmcmurry@mwt.net Adapted for the template by  Wim van der Kuil - Leuven-Template.eu

Recycling: Americans use 85,000,000 tons of paper a year; about 680 pounds per person.